Weather History for Cavalier, ND

Change the Weather History Date:

Friday, March 15, 2013

  Actual Average (KGAF) Record (KGAF)
Temperature  
Mean Temperature 8 °F -  
Max Temperature 17 °F 34 °F 57 °F (2012)
Min Temperature 0 °F 16 °F -16 °F (1956)
Degree Days  
Heating Degree Days 56    
Moisture  
Dew Point 3 °F    
Average Humidity 81    
Maximum Humidity 92    
Minimum Humidity 73    
Precipitation  
Precipitation 0.69 in - - ()
Sea Level Pressure  
Sea Level Pressure 30.16 in    
Wind  
Wind Speed 15 mph (North)    
Max Wind Speed 18 mph    
Max Gust Speed 24 mph    
Visibility 6 miles    
Events Rain , Snow    
Averages and records for this station are not official NWS values.
T = Trace of Precipitation, MM = Missing Value Source: NWS Daily Summary

Daily Weather History Graph

Daily Weather History Graph

Search for Another Location

Airport:

Trip Planner

Search our weather history database for the weather conditions in past years. The results will help you decide how hot, cold, wet, or windy it might be!

Date:

Astronomy

Mar. 15, 2013 Rise Set
Actual Time 7:43 AM CDT 7:36 PM CDT
Civil Twilight 7:11 AM CDT 8:07 PM CDT
Nautical Twilight 6:35 AM CDT 8:44 PM CDT
Astronomical Twilight 5:57 AM CDT 9:22 PM CDT
Moon 9:12 AM CDT (3/15) No Moon Set
Length of Visible Light 12h 55m
Length of Day
11h 53m
Waxing Crescent, 15% of the Moon is Illuminated
Mar 15
Waxing Crescent
Mar 19
First Quarter
Mar 27
Full
Apr 2
Last Quarter
Apr 10
New

Hourly Weather History & Observations

Time (CDT) Temp. Windchill Dew Point Humidity Pressure Visibility Wind Dir Wind Speed Gust Speed Precip Events Conditions
12:15 AM 17.6 °F 3.2 °F 12.2 °F 79% 30.17 in 10.0 mi North 15.0 mph 23.0 mph N/A   Clear
12:35 AM 17.6 °F 2.7 °F 10.4 °F 73% 30.16 in 10.0 mi North 16.1 mph 23.0 mph N/A   Clear
12:55 AM 17.6 °F 2.2 °F 10.4 °F 73% 30.17 in 10.0 mi North 17.3 mph 23.0 mph N/A   Clear
1:15 AM 15.8 °F -0.2 °F 10.4 °F 79% 30.17 in 10.0 mi North 17.3 mph 23.0 mph N/A   Clear
1:35 AM 15.8 °F 1.4 °F 10.4 °F 79% 30.17 in 10.0 mi North 13.8 mph 21.9 mph N/A   Partly Cloudy
2:15 AM 14.0 °F -2.0 °F 8.6 °F 79% 30.19 in 10.0 mi North 16.1 mph 20.7 mph N/A   Partly Cloudy
2:35 AM 14.0 °F -2.0 °F 8.6 °F 79% 30.19 in 10.0 mi North 16.1 mph 23.0 mph N/A   Clear
2:55 AM 14.0 °F -0.8 °F 8.6 °F 79% 30.19 in 10.0 mi North 13.8 mph 20.7 mph N/A   Clear
3:15 AM 12.2 °F -3.7 °F 6.8 °F 79% 30.19 in 10.0 mi North 15.0 mph 23.0 mph N/A   Mostly Cloudy
3:35 AM 10.4 °F -7.2 °F 6.8 °F 85% 30.19 in 10.0 mi North 17.3 mph 20.7 mph N/A   Overcast
3:55 AM 10.4 °F -7.2 °F 6.8 °F 85% 30.18 in 10.0 mi North 17.3 mph 21.9 mph N/A   Mostly Cloudy
4:15 AM 10.4 °F -6.0 °F 6.8 °F 85% 30.18 in 10.0 mi North 15.0 mph - N/A   Partly Cloudy
4:35 AM 10.4 °F -6.0 °F 5.0 °F 79% 30.17 in 10.0 mi North 15.0 mph 18.4 mph N/A   Clear
4:55 AM 10.4 °F -6.0 °F 5.0 °F 79% 30.17 in 10.0 mi North 15.0 mph 20.7 mph N/A   Clear
5:15 AM 10.4 °F -6.0 °F 5.0 °F 79% 30.17 in 10.0 mi North 15.0 mph 23.0 mph N/A   Mostly Cloudy
5:35 AM 8.6 °F -10.0 °F 5.0 °F 85% 30.17 in 10.0 mi North 18.4 mph 23.0 mph N/A   Scattered Clouds
5:55 AM 8.6 °F -7.7 °F 5.0 °F 85% 30.17 in 10.0 mi North 13.8 mph - N/A   Clear
6:15 AM 8.6 °F -8.9 °F 3.2 °F 79% 30.18 in 10.0 mi North 16.1 mph 21.9 mph N/A   Clear
6:35 AM 8.6 °F -7.7 °F 3.2 °F 79% 30.18 in 10.0 mi North 13.8 mph 19.6 mph N/A   Clear
7:15 AM 6.8 °F -10.0 °F 1.4 °F 79% 30.17 in 10.0 mi North 13.8 mph - N/A   Clear
7:35 AM 6.8 °F -9.3 °F 1.4 °F 79% 30.16 in 10.0 mi North 12.7 mph - N/A   Clear
7:55 AM 6.8 °F -10.7 °F 1.4 °F 79% 30.16 in 10.0 mi North 15.0 mph 19.6 mph N/A   Clear
8:15 AM 6.8 °F -10.7 °F 1.4 °F 79% 30.16 in 10.0 mi North 15.0 mph - N/A   Partly Cloudy
8:35 AM 6.8 °F -10.7 °F 1.4 °F 79% 30.18 in 10.0 mi North 15.0 mph - N/A   Mostly Cloudy
8:55 AM 6.8 °F -10.7 °F 1.4 °F 79% 30.18 in 10.0 mi North 15.0 mph 19.6 mph N/A   Mostly Cloudy
9:15 AM 6.8 °F -10.0 °F 1.4 °F 79% 30.18 in 10.0 mi North 13.8 mph - N/A   Clear
9:35 AM 6.8 °F -10.0 °F 1.4 °F 79% 30.18 in 10.0 mi North 13.8 mph 19.6 mph N/A   Partly Cloudy
11:15 AM 6.8 °F -9.3 °F 1.4 °F 79% 30.15 in 1.8 mi North 12.7 mph 20.7 mph N/A Snow Light Snow
11:35 AM 6.8 °F -8.6 °F 1.4 °F 79% 30.14 in 0.8 mi NNE 11.5 mph - 0.02 in Snow Light Snow
11:55 AM 6.8 °F -10.0 °F 1.4 °F 79% 30.14 in 0.8 mi North 13.8 mph - 0.04 in Snow Light Snow
12:15 PM 6.8 °F -10.0 °F 1.4 °F 79% 30.13 in 1.2 mi North 13.8 mph - N/A Snow Light Snow
12:35 PM 6.8 °F -10.0 °F 1.4 °F 79% 30.14 in 1.8 mi North 13.8 mph 20.7 mph 0.01 in Snow Light Snow
12:55 PM 6.8 °F -11.3 °F 1.4 °F 79% 30.12 in 2.5 mi North 16.1 mph 20.7 mph 0.01 in Snow Light Snow
1:15 PM 6.8 °F -10.7 °F 1.4 °F 79% 30.12 in 3.0 mi North 15.0 mph 19.6 mph N/A Rain Light Freezing Rain
1:35 PM 6.8 °F -10.7 °F 1.4 °F 79% 30.12 in 1.2 mi North 15.0 mph 19.6 mph N/A Snow Light Snow
1:55 PM 6.8 °F -11.3 °F 1.4 °F 79% 30.12 in 1.0 mi North 16.1 mph 20.7 mph 0.01 in Snow Light Snow
2:15 PM 6.8 °F -10.7 °F 1.4 °F 79% 30.13 in 0.5 mi North 15.0 mph - 0.01 in Snow Snow
2:35 PM 6.8 °F -10.0 °F 1.4 °F 79% 30.14 in 0.5 mi North 13.8 mph 18.4 mph 0.06 in Snow Snow
2:55 PM 6.8 °F -11.3 °F 1.4 °F 79% 30.13 in 0.2 mi North 16.1 mph - 0.13 in Snow Heavy Snow
3:15 PM 6.8 °F -10.0 °F 1.4 °F 79% 30.14 in 0.5 mi North 13.8 mph 19.6 mph 0.05 in Snow Snow
3:35 PM 6.8 °F -10.7 °F 1.4 °F 79% 30.13 in 0.5 mi North 15.0 mph 23.0 mph 0.11 in Snow Snow
3:55 PM 6.8 °F -10.0 °F 1.4 °F 79% 30.13 in 0.5 mi North 13.8 mph - 0.16 in Snow Snow
4:15 PM 5.0 °F -14.7 °F 1.4 °F 85% 30.12 in 0.5 mi North 18.4 mph - 0.02 in Snow Snow
4:35 PM 5.0 °F -14.2 °F 1.4 °F 85% 30.12 in 0.8 mi North 17.3 mph 24.2 mph 0.06 in Snow Light Snow
4:55 PM 5.0 °F -13.6 °F 1.4 °F 85% 30.12 in 1.2 mi North 16.1 mph 21.9 mph 0.08 in Snow Light Snow
5:15 PM 5.0 °F -13.6 °F 1.4 °F 85% 30.12 in 0.5 mi North 16.1 mph 23.0 mph 0.03 in Snow Snow
5:35 PM 5.0 °F -14.2 °F 1.4 °F 85% 30.12 in 1.0 mi North 17.3 mph 21.9 mph 0.05 in Snow Light Snow
5:55 PM 5.0 °F -14.2 °F 1.4 °F 85% 30.13 in 0.5 mi North 17.3 mph 23.0 mph 0.09 in Snow Snow
6:15 PM 5.0 °F -14.2 °F 1.4 °F 85% 30.13 in 0.8 mi North 17.3 mph 24.2 mph 0.02 in Snow Light Snow
6:35 PM 5.0 °F -13.0 °F 1.4 °F 85% 30.13 in 1.2 mi North 15.0 mph 23.0 mph 0.05 in Snow Light Snow
6:55 PM 5.0 °F -13.6 °F 1.4 °F 85% 30.13 in 1.5 mi North 16.1 mph 19.6 mph 0.07 in Snow Light Snow
7:15 PM 5.0 °F -13.0 °F 1.4 °F 85% 30.14 in 1.0 mi North 15.0 mph - 0.01 in Snow Light Snow
7:35 PM 5.0 °F -13.0 °F 1.4 °F 85% 30.14 in 0.8 mi North 15.0 mph 21.9 mph 0.04 in Snow Light Snow
7:55 PM 5.0 °F -11.6 °F 1.4 °F 85% 30.15 in 0.8 mi North 12.7 mph - 0.07 in Snow Light Snow
8:15 PM 5.0 °F -13.6 °F 1.4 °F 85% 30.16 in 1.8 mi North 16.1 mph 20.7 mph 0.01 in Snow Light Snow
8:35 PM 5.0 °F -12.3 °F -0.4 °F 78% 30.16 in 1.8 mi North 13.8 mph 19.6 mph 0.02 in Snow Light Snow
8:55 PM 5.0 °F -12.3 °F -0.4 °F 78% 30.18 in 5.0 mi North 13.8 mph - 0.03 in Rain Light Freezing Rain
9:15 PM 5.0 °F -11.6 °F -0.4 °F 78% 30.18 in 5.0 mi North 12.7 mph - N/A Rain Light Freezing Rain
9:35 PM 3.2 °F -13.1 °F -0.4 °F 85% 30.18 in 5.0 mi North 11.5 mph - N/A Rain Light Freezing Rain
9:55 PM 3.2 °F -13.1 °F -0.4 °F 85% 30.19 in 5.0 mi North 11.5 mph - N/A Rain Light Freezing Rain
10:15 PM 3.2 °F -13.1 °F -0.4 °F 85% 30.19 in 9.0 mi North 11.5 mph - N/A Rain Light Freezing Rain
10:35 PM 1.4 °F -15.3 °F -0.4 °F 92% 30.19 in 10.0 mi North 11.5 mph - N/A   Partly Cloudy
10:55 PM 1.4 °F -14.5 °F -2.2 °F 85% 30.20 in 10.0 mi North 10.4 mph - N/A   Clear
11:15 PM -0.4 °F -15.7 °F -2.2 °F 92% 30.19 in 10.0 mi NNW 9.2 mph - N/A   Partly Cloudy
11:35 PM -0.4 °F -16.7 °F -4.0 °F 85% 30.20 in 10.0 mi NNW 10.4 mph - N/A   Clear
11:55 PM -0.4 °F -15.7 °F -4.0 °F 85% 30.20 in 10.0 mi NNW 9.2 mph - N/A   Clear